tititudorancea.com
Station Historical Data
Daily Summary for March 10, 2018 Units:  Metric    English   Both
« Previous Day
Next Day »
Daily Weekly Monthly Yearly Custom
  High: Low: Average:
Temperature: -17.8 °C 12.1 °C 23.8 °C
Dew Point: -17.8 °C 4.1 °C 6.5 °C
Humidity: Humidity % 16 % 38 %
Wind Speed: 0 km/h 0 km/h 4.5 km/h
Wind Gust: 0 km/h - -
Wind:- - WSW
Pressure: 0 hPa 1018.5 hPa -
Precipitation: 0 mm    
Historical Graphs
 
 
Ararat weather Find more about Weather in Ararat, AU


 



 


Tabular Data for March 10, 2018
Time Temperature Dew Point Pressure Wind Wind Speed Wind Gust Humidity Rainfall Rate (Hourly)
-17.8 °C -17.8 °C 0 hPa Calm     Humidity % 0 mm
00:00 20.1 °C 6.4 °C 1021.9 hPa South 1.3 km/h 3.2 km/h 41 % 0 mm
00:05 20 °C 6.3 °C 1021.9 hPa South 3.1 km/h 5.6 km/h 41 % 0 mm
00:10 19.9 °C 6.6 °C 1021.9 hPa South 0.8 km/h 1.9 km/h 42 % 0 mm
00:15 19.7 °C 6.7 °C 1021.9 hPa North 1 km/h 3.7 km/h 43 % 0 mm
00:20 19.4 °C 6.5 °C 1021.9 hPa Calm     43 % 0 mm
00:25 19.3 °C 6.4 °C 1021.9 hPa Calm     43 % 0 mm
00:30 19.3 °C 6.4 °C 1021.9 hPa Calm     43 % 0 mm
00:35 19.2 °C 6.6 °C 1021.9 hPa Calm     44 % 0 mm
00:40 19.1 °C 6.6 °C 1021.9 hPa Calm     44 % 0 mm
00:45 19 °C 6.4 °C 1021.9 hPa South 2.7 km/h 3.7 km/h 44 % 0 mm
00:50 18.6 °C 6.4 °C 1021.9 hPa South 2.3 km/h 3.7 km/h 45 % 0 mm
00:55 18.3 °C 6.4 °C 1021.9 hPa Calm     46 % 0 mm
01:00 18.2 °C 6.3 °C 1021.9 hPa Calm     46 % 0 mm
01:05 18 °C 6.5 °C 1021.9 hPa Calm     47 % 0 mm
01:10 17.8 °C 6.6 °C 1021.9 hPa Calm     48 % 0 mm
01:15 17.8 °C 6.6 °C 1021.9 hPa Calm     48 % 0 mm
01:20 17.9 °C 6.4 °C 1021.9 hPa Calm     47 % 0 mm
01:25 17.8 °C 6.7 °C 1021.9 hPa Calm     48 % 0 mm
01:30 17.7 °C 6.5 °C 1021.9 hPa Calm     48 % 0 mm
01:35 17.5 °C 6.7 °C 1021.9 hPa Calm     49 % 0 mm
01:40 17.4 °C 6.8 °C 1021.9 hPa Calm     50 % 0 mm
01:45 17.2 °C 6.7 °C 1021.9 hPa Calm     50 % 0 mm
01:50 17 °C 6.8 °C 1021.9 hPa Calm     51 % 0 mm
01:55 16.8 °C 6.9 °C 1021.9 hPa Calm     52 % 0 mm
02:00 16.7 °C 6.8 °C 1021.9 hPa Calm     52 % 0 mm
02:05 16.5 °C 6.9 °C 1021.9 hPa Calm     53 % 0 mm
02:10 16.4 °C 7.1 °C 1021.9 hPa Calm     54 % 0 mm
02:15 16.3 °C 7 °C 1021.9 hPa Calm     54 % 0 mm
02:20 16.3 °C 7.2 °C 1021.6 hPa Calm   1.9 km/h 55 % 0 mm
02:25 16.1 °C 7.1 °C 1021.6 hPa Calm     55 % 0 mm
02:30 15.9 °C 7.2 °C 1021.6 hPa Calm     56 % 0 mm
02:35 15.8 °C 7.1 °C 1021.6 hPa Calm     56 % 0 mm
02:40 15.7 °C 7.2 °C 1021.6 hPa Calm     57 % 0 mm
02:45 15.6 °C 7.1 °C 1021.6 hPa Calm     57 % 0 mm
02:50 15.4 °C 7.2 °C 1021.6 hPa Calm     58 % 0 mm
02:55 15.4 °C 7.2 °C 1021.6 hPa Calm     58 % 0 mm
03:00 15.3 °C 7.3 °C 1021.6 hPa Calm     59 % 0 mm
03:05 15.1 °C 7.2 °C 1021.6 hPa Calm     59 % 0 mm
03:06 15.1 °C 7.2 °C 1021.6 hPa Calm     59 % 0 mm
03:11 15 °C 7.3 °C 1021.6 hPa Calm     60 % 0 mm
03:16 14.8 °C 7.1 °C 1021.6 hPa Calm     60 % 0 mm
03:21 14.7 °C 7.2 °C 1021.6 hPa Calm     61 % 0 mm
03:26 14.6 °C 7.1 °C 1021.6 hPa Calm     61 % 0 mm
03:31 14.4 °C 7.2 °C 1021.6 hPa Calm     62 % 0 mm
03:36 14.3 °C 7.2 °C 1021.6 hPa Calm     62 % 0 mm
03:41 14.2 °C 7 °C 1021.6 hPa Calm     62 % 0 mm
03:46 14 °C 7.1 °C 1021.2 hPa Calm     63 % 0 mm
03:51 13.9 °C 7.2 °C 1021.6 hPa Calm     64 % 0 mm
03:56 13.7 °C 7.1 °C 1021.2 hPa Calm     64 % 0 mm
04:01 13.6 °C 7.1 °C 1021.2 hPa Calm     65 % 0 mm
04:06 13.4 °C 6.9 °C 1021.2 hPa Calm     65 % 0 mm
04:11 13.3 °C 7.1 °C 1021.2 hPa Calm     66 % 0 mm
04:16 13.2 °C 6.9 °C 1021.2 hPa Calm     66 % 0 mm
04:21 13.1 °C 6.8 °C 1021.2 hPa Calm     66 % 0 mm
04:26 12.9 °C 6.7 °C 1021.2 hPa Calm     66 % 0 mm
04:31 12.8 °C 6.8 °C 1021.2 hPa Calm     67 % 0 mm
04:36 12.7 °C 6.9 °C 1021.2 hPa Calm     68 % 0 mm
04:41 12.7 °C 6.9 °C 1021.2 hPa Calm     68 % 0 mm
04:46 12.6 °C 7 °C 1021.2 hPa Calm     69 % 0 mm
04:51 12.5 °C 6.9 °C 1021.2 hPa Calm     69 % 0 mm
04:56 12.4 °C 6.9 °C 1021.2 hPa Calm     69 % 0 mm
05:01 12.4 °C 7.1 °C 1021.2 hPa Calm     70 % 0 mm
05:06 12.4 °C 7.1 °C 1021.2 hPa Calm     70 % 0 mm
05:11 12.6 °C 7.2 °C 1021.2 hPa Calm     70 % 0 mm
05:16 12.6 °C 7.1 °C 1021.2 hPa Calm     69 % 0 mm
05:21 12.6 °C 7.1 °C 1021.2 hPa Calm     69 % 0 mm
05:26 12.7 °C 7.1 °C 1021.2 hPa Calm     69 % 0 mm
05:31 12.7 °C 6.9 °C 1021.2 hPa Calm     68 % 0 mm
05:36 12.6 °C 7.1 °C 1021.2 hPa Calm     69 % 0 mm
05:41 12.6 °C 7.1 °C 1021.2 hPa Calm     69 % 0 mm
05:46 12.6 °C 6.8 °C 1021.2 hPa Calm     68 % 0 mm
05:51 12.5 °C 6.9 °C 1021.2 hPa Calm     69 % 0 mm
05:56 12.4 °C 6.9 °C 1021.2 hPa Calm     69 % 0 mm
06:01 12.4 °C 6.9 °C 1021.2 hPa Calm     69 % 0 mm
06:06 12.3 °C 6.8 °C 1021.2 hPa Calm     69 % 0 mm
06:11 12.3 °C 6.8 °C 1021.2 hPa Calm     69 % 0 mm
06:16 12.2 °C 6.7 °C 1021.2 hPa Calm     69 % 0 mm
06:21 12.1 °C 6.6 °C 1021.2 hPa Calm     69 % 0 mm
06:26 12.1 °C 6.8 °C 1021.2 hPa Calm     70 % 0 mm
06:31 12.3 °C 6.9 °C 1021.6 hPa Calm     70 % 0 mm
06:36 12.7 °C 7.1 °C 1021.6 hPa Calm     69 % 0 mm
06:41 13.1 °C 7.3 °C 1021.6 hPa Calm     68 % 0 mm
06:46 13.3 °C 7.1 °C 1021.6 hPa Calm     66 % 0 mm
06:51 13.6 °C 6.9 °C 1021.6 hPa Calm     64 % 0 mm
06:56 13.9 °C 6.9 °C 1021.6 hPa Calm     63 % 0 mm
07:01 14 °C 6.8 °C 1021.6 hPa Calm     62 % 0 mm
07:06 14.1 °C 6.9 °C 1021.6 hPa Calm     62 % 0 mm
07:11 14.1 °C 6.9 °C 1021.6 hPa Calm     62 % 0 mm
07:16 14 °C 6.8 °C 1021.9 hPa Calm     62 % 0 mm
07:21 13.9 °C 6.8 °C 1021.9 hPa Calm     62 % 0 mm
07:26 13.8 °C 6.9 °C 1021.9 hPa Calm     63 % 0 mm
07:31 13.8 °C 6.8 °C 1021.9 hPa Calm     63 % 0 mm
07:36 13.9 °C 6.8 °C 1022.2 hPa Calm     62 % 0 mm
07:41 14.1 °C 6.9 °C 1022.2 hPa Calm     62 % 0 mm
07:46 14.3 °C 6.8 °C 1022.2 hPa Calm     61 % 0 mm
07:51 14.5 °C 7.1 °C 1022.2 hPa Calm     61 % 0 mm
07:56 14.9 °C 7.2 °C 1022.2 hPa Calm     60 % 0 mm
08:01 15.4 °C 7.4 °C 1022.2 hPa Calm     59 % 0 mm
08:02 15.5 °C 7.5 °C 1022.6 hPa Calm     59 % 0 mm
08:07 16.1 °C 7.6 °C 1022.6 hPa Calm     57 % 0 mm
08:12 16.6 °C 7.5 °C 1022.6 hPa Calm     55 % 0 mm
08:17 17.1 °C 7.4 °C 1022.6 hPa Calm     53 % 0 mm
08:22 17.7 °C 7.7 °C 1022.6 hPa South 1.4 km/h 3.7 km/h 52 % 0 mm
08:27 18.5 °C 7.9 °C 1022.6 hPa South 3.7 km/h 5.6 km/h 50 % 0 mm
08:32 19.1 °C 7.5 °C 1022.6 hPa South 2.6 km/h 5.6 km/h 47 % 0 mm
08:37 19.6 °C 7.3 °C 1022.6 hPa South 2.3 km/h 3.7 km/h 45 % 0 mm
08:43 20.2 °C 7.6 °C 1022.6 hPa South 5.6 km/h 5.6 km/h 44 % 0 mm
08:48 20.8 °C 7.8 °C 1022.6 hPa South 1.9 km/h 3.7 km/h 43 % 0 mm
08:53 21.4 °C 7.9 °C 1022.6 hPa South 2.4 km/h 3.7 km/h 42 % 0 mm
08:58 22 °C 8.1 °C 1022.6 hPa South 2.7 km/h 5.6 km/h 41 % 0 mm
09:03 22.6 °C 8.3 °C 1022.6 hPa South 1.8 km/h 3.7 km/h 40 % 0 mm
09:08 23.1 °C 8 °C 1022.6 hPa South 4.3 km/h 6.4 km/h 38 % 0 mm
09:13 23.6 °C 8 °C 1022.9 hPa South 4 km/h 5.6 km/h 37 % 0 mm
09:18 24 °C 8 °C 1022.9 hPa South 4.8 km/h 6.4 km/h 36 % 0 mm
09:23 24.4 °C 8 °C 1022.9 hPa South 5.8 km/h 8 km/h 35 % 0 mm
09:28 24.8 °C 7.9 °C 1022.9 hPa South 4.2 km/h 5.6 km/h 34 % 0 mm
09:33 25.2 °C 7.8 °C 1022.9 hPa SSW 8.4 km/h 9.7 km/h 33 % 0 mm
09:38 25.7 °C 7.3 °C 1022.9 hPa SSW 8 km/h 11.1 km/h 31 % 0 mm
09:43 26 °C 7.6 °C 1022.9 hPa SSW 5.1 km/h 7.4 km/h 31 % 0 mm
09:48 26.3 °C 7.4 °C 1022.9 hPa West 10.5 km/h 14.8 km/h 30 % 0 mm
09:53 26.7 °C 7.7 °C 1022.9 hPa North 6.1 km/h 14.8 km/h 30 % 0 mm
09:58 26.9 °C 7.4 °C 1022.9 hPa North 7.9 km/h 11.1 km/h 29 % 0 mm
10:03 27.3 °C 7.2 °C 1022.9 hPa NNW 10.9 km/h 18.5 km/h 28 % 0 mm
10:08 27.5 °C 7.3 °C 1022.9 hPa NNE 11.6 km/h 20.4 km/h 28 % 0 mm
10:13 27.6 °C 6.9 °C 1022.9 hPa North 9 km/h 14.8 km/h 27 % 0 mm
10:18 27.7 °C 7.6 °C 1022.9 hPa North 10.5 km/h 14.5 km/h 28 % 0 mm
10:23 27.8 °C 7.1 °C 1022.9 hPa North 8 km/h 13 km/h 27 % 0 mm
10:28 28 °C 7.3 °C 1022.9 hPa NNE 8.2 km/h 16.1 km/h 27 % 0 mm
10:33 28.3 °C 7.5 °C 1022.9 hPa NNE 8.7 km/h 11.3 km/h 27 % 0 mm
10:38 28.4 °C 7.1 °C 1022.9 hPa NNE 7.9 km/h 13 km/h 26 % 0 mm
10:43 28.7 °C 7.3 °C 1022.6 hPa NNE 11.1 km/h 16.7 km/h 26 % 0 mm
10:48 28.8 °C 7.4 °C 1022.6 hPa North 8 km/h 14.8 km/h 26 % 0 mm
10:53 29 °C 7.6 °C 1022.6 hPa North 9.8 km/h 11.1 km/h 26 % 0 mm
10:58 29.2 °C 7.7 °C 1022.6 hPa North 9.3 km/h 11.1 km/h 26 % 0 mm
11:03 29.1 °C 7.7 °C 1022.6 hPa NNW 10.3 km/h 14.8 km/h 26 % 0 mm
11:08 29.2 °C 7.2 °C 1022.6 hPa NNW 10.6 km/h 16.7 km/h 25 % 0 mm
11:13 29.3 °C 7.8 °C 1022.6 hPa NW 10.9 km/h 14.8 km/h 26 % 0 mm
11:18 29.4 °C 7.3 °C 1022.6 hPa NW 10.5 km/h 14.5 km/h 25 % 0 mm
11:24 29.4 °C 7.3 °C 1022.6 hPa NW 9.8 km/h 13 km/h 25 % 0 mm
11:29 29.5 °C 7.4 °C 1022.2 hPa North 8.9 km/h 14.8 km/h 25 % 0 mm
11:34 29.5 °C 7.4 °C 1022.2 hPa NNE 8.4 km/h 18.5 km/h 25 % 0 mm
11:39 29.7 °C 7.6 °C 1022.2 hPa WNW 11.1 km/h 13 km/h 25 % 0 mm
11:44 29.8 °C 7.6 °C 1022.2 hPa NNE 14.2 km/h 14.8 km/h 25 % 0 mm
11:49 30 °C 7.2 °C 1022.2 hPa NNW 11.1 km/h 16.7 km/h 24 % 0 mm
11:54 30 °C 7.8 °C 1022.2 hPa North 11.4 km/h 14.8 km/h 25 % 0 mm
11:59 30.3 °C 7.5 °C 1022.2 hPa NNE 10.3 km/h 16.7 km/h 24 % 0 mm
12:04 30.4 °C 7.6 °C 1022.2 hPa NNW 11.1 km/h 18.5 km/h 24 % 0 mm
12:09 30.5 °C 7.7 °C 1022.2 hPa North 10.3 km/h 18.5 km/h 24 % 0 mm
12:14 30.4 °C 7.6 °C 1021.9 hPa NNW 10.5 km/h 18.5 km/h 24 % 0 mm
12:19 30.1 °C 7.3 °C 1021.9 hPa North 12.2 km/h 16.7 km/h 24 % 0 mm
12:24 30.4 °C 7.6 °C 1021.9 hPa NNW 8 km/h 14.8 km/h 24 % 0 mm
12:29 30.6 °C 7.1 °C 1021.9 hPa NW 12.1 km/h 18.5 km/h 23 % 0 mm
12:34 30.7 °C 7.2 °C 1021.9 hPa NNE 10.6 km/h 20.4 km/h 23 % 0 mm
12:39 30.8 °C 6.6 °C 1021.9 hPa NNE 11.6 km/h 18.5 km/h 22 % 0 mm
12:44 30.9 °C 6.7 °C 1021.6 hPa NW 17.1 km/h 22.2 km/h 22 % 0 mm
12:49 30.9 °C 6.7 °C 1021.9 hPa WNW 6.3 km/h 11.1 km/h 22 % 0 mm
12:54 31.1 °C 6.8 °C 1021.6 hPa North 11.3 km/h 16.7 km/h 22 % 0 mm
12:59 31.3 °C 7 °C 1021.6 hPa North 10.5 km/h 16.7 km/h 22 % 0 mm
13:04 31.3 °C 7 °C 1021.6 hPa North 9.2 km/h 14.8 km/h 22 % 0 mm
13:09 31.4 °C 7.2 °C 1021.6 hPa North 8.4 km/h 16.7 km/h 22 % 0 mm
13:14 31.6 °C 6.6 °C 1021.6 hPa North 7.4 km/h 13 km/h 21 % 0 mm
13:19 31.4 °C 7.2 °C 1021.6 hPa North 4 km/h 9.7 km/h 22 % 0 mm
13:24 31.6 °C 7.2 °C 1021.2 hPa North 8.9 km/h 14.8 km/h 22 % 0 mm
13:29 31.4 °C 7.2 °C 1021.2 hPa WNW 12.7 km/h 18.5 km/h 22 % 0 mm
13:34 31.6 °C 7.3 °C 1021.2 hPa NW 10.9 km/h 18.5 km/h 22 % 0 mm
13:39 31.9 °C 6.9 °C 1021.2 hPa NE 8.7 km/h 13 km/h 21 % 0 mm
13:44 32 °C 6.2 °C 1020.9 hPa NNW 9.2 km/h 11.1 km/h 20 % 0 mm
13:49 31.9 °C 6.9 °C 1020.9 hPa NNW 10.9 km/h 14.8 km/h 21 % 0 mm
13:54 31.8 °C 6.1 °C 1020.9 hPa NNW 11.7 km/h 18.5 km/h 20 % 0 mm
13:59 31.9 °C 6.1 °C 1020.9 hPa WNW 9.7 km/h 16.7 km/h 20 % 0 mm
14:04 32.1 °C 6.3 °C 1020.9 hPa NNE 9.5 km/h 16.7 km/h 20 % 0 mm
14:09 32.5 °C 5.9 °C 1020.9 hPa North 14 km/h 18.5 km/h 19 % 0 mm
14:14 32.8 °C 6.1 °C 1020.5 hPa WNW 11.4 km/h 16.7 km/h 19 % 0 mm
14:19 32.5 °C 5.9 °C 1020.9 hPa NNW 5 km/h 11.1 km/h 19 % 0 mm
14:24 32.5 °C 5.9 °C 1020.5 hPa NNE 5 km/h 7.4 km/h 19 % 0 mm
14:29 32.8 °C 6.2 °C 1020.5 hPa NNW 10.5 km/h 16.7 km/h 19 % 0 mm
14:34 33 °C 6.3 °C 1020.5 hPa NNW 10.8 km/h 16.7 km/h 19 % 0 mm
14:39 33.1 °C 5.6 °C 1020.2 hPa North 7.2 km/h 14.8 km/h 18 % 0 mm
14:44 33.1 °C 6.4 °C 1020.2 hPa North 11.4 km/h 22.2 km/h 19 % 0 mm
14:49 33.3 °C 5.7 °C 1020.2 hPa North 5.6 km/h 7.4 km/h 18 % 0 mm
14:54 33.2 °C 6.5 °C 1020.2 hPa NNW 12.4 km/h 22.2 km/h 19 % 0 mm
14:59 33.1 °C 6.4 °C 1019.9 hPa NNE 14.8 km/h 24.1 km/h 19 % 0 mm
15:04 33.2 °C 6.5 °C 1019.9 hPa NNE 10.9 km/h 20.4 km/h 19 % 0 mm
15:09 33 °C 5.5 °C 1019.9 hPa NNW 7.4 km/h 18.5 km/h 18 % 0 mm
15:14 32.9 °C 6.3 °C 1019.9 hPa WNW 7.1 km/h 9.3 km/h 19 % 0 mm
15:19 33.1 °C 6.3 °C 1019.5 hPa North 10.1 km/h 13 km/h 19 % 0 mm
15:24 33.1 °C 6.4 °C 1019.5 hPa NNW 10.3 km/h 18.5 km/h 19 % 0 mm
15:29 33.3 °C 5.7 °C 1019.5 hPa North 5.3 km/h 13 km/h 18 % 0 mm
15:34 33.4 °C 5.9 °C 1019.5 hPa NW 20.1 km/h 22.2 km/h 18 % 0 mm
15:39 33.3 °C 5.8 °C 1019.5 hPa NNW 13.2 km/h 14.8 km/h 18 % 0 mm
15:44 33.4 °C 5.8 °C 1019.5 hPa WNW 12.1 km/h 18.5 km/h 18 % 0 mm
15:49 33.3 °C 5.7 °C 1019.5 hPa North 6.9 km/h 13 km/h 18 % 0 mm
15:54 33.4 °C 5.8 °C 1019.2 hPa NNW 13.5 km/h 22.5 km/h 18 % 0 mm
15:59 33.4 °C 5.8 °C 1019.2 hPa North 13.5 km/h 18.5 km/h 18 % 0 mm
16:04 33.6 °C 5.9 °C 1019.2 hPa NW 8.2 km/h 9.7 km/h 18 % 0 mm
16:09 33.6 °C 5.2 °C 1019.2 hPa NNE 11.1 km/h 16.7 km/h 17 % 0 mm
16:14 33.6 °C 5.2 °C 1019.2 hPa NNW 12.2 km/h 18.5 km/h 17 % 0 mm
16:19 33.6 °C 5.2 °C 1019.2 hPa NW 13 km/h 18.5 km/h 17 % 0 mm
16:24 33.8 °C 5.3 °C 1018.8 hPa West 11.4 km/h 16.7 km/h 17 % 0 mm
16:25 33.8 °C 5.4 °C 1018.8 hPa West 12.6 km/h 14.8 km/h 17 % 0 mm
16:30 34 °C 5.5 °C 1018.8 hPa North 5.1 km/h 5.6 km/h 17 % 0 mm
16:35 34 °C 5.5 °C 1018.8 hPa NW 4.3 km/h 7.4 km/h 17 % 0 mm
16:40 34.2 °C 5.7 °C 1018.8 hPa West 12.9 km/h 18.5 km/h 17 % 0 mm
16:45 34.2 °C 5.7 °C 1018.5 hPa NW 4.7 km/h 9.7 km/h 17 % 0 mm
16:50 34.2 °C 4.8 °C 1018.5 hPa NW 12.7 km/h 16.7 km/h 16 % 0 mm
16:55 34.1 °C 5.6 °C 1018.5 hPa NW 5.8 km/h 11.1 km/h 17 % 0 mm
17:00 34.3 °C 5.7 °C 1018.5 hPa North 7.7 km/h 16.7 km/h 17 % 0 mm
17:05 33.9 °C 4.6 °C 1018.5 hPa North 11.9 km/h 17.7 km/h 16 % 0 mm
17:10 33.7 °C 4.4 °C 1018.5 hPa North 4.5 km/h 11.1 km/h 16 % 0 mm
17:15 33.5 °C 4.2 °C 1018.5 hPa North 4 km/h 11.1 km/h 16 % 0 mm
17:20 33.8 °C 5.3 °C 1018.5 hPa North 6 km/h 9.7 km/h 17 % 0 mm
17:25 34.1 °C 5.6 °C 1018.5 hPa NNW 11.7 km/h 16.7 km/h 17 % 0 mm
17:30 33.8 °C 5.3 °C 1018.5 hPa WNW 7.9 km/h 16.1 km/h 17 % 0 mm
17:35 33.7 °C 4.4 °C 1018.5 hPa WNW 10.3 km/h 20.4 km/h 16 % 0 mm
17:40 33.7 °C 4.4 °C 1018.5 hPa North 6.3 km/h 9.7 km/h 16 % 0 mm
17:45 33.7 °C 4.4 °C 1018.5 hPa WNW 9.2 km/h 12.9 km/h 16 % 0 mm
17:50 33.8 °C 4.4 °C 1018.5 hPa North 7.4 km/h 14.8 km/h 16 % 0 mm
17:55 33.6 °C 4.3 °C 1018.5 hPa WNW 6.4 km/h 13 km/h 16 % 0 mm
18:00 33.6 °C 4.3 °C 1018.5 hPa WNW 14.5 km/h 18.5 km/h 16 % 0 mm
18:05 33.4 °C 5.1 °C 1018.5 hPa WNW 8.4 km/h 11.1 km/h 17 % 0 mm
18:10 33.4 °C 5 °C 1018.5 hPa WNW 10.1 km/h 16.7 km/h 17 % 0 mm
18:15 33.3 °C 4.9 °C 1018.5 hPa WNW 5.6 km/h 11.1 km/h 17 % 0 mm
18:20 33.4 °C 4.2 °C 1018.5 hPa NW 8.5 km/h 13 km/h 16 % 0 mm
18:25 33.3 °C 4.1 °C 1018.5 hPa North 12.4 km/h 16.7 km/h 16 % 0 mm
18:30 33.1 °C 4.8 °C 1018.5 hPa North 5.3 km/h 13 km/h 17 % 0 mm
18:35 33.1 °C 4.8 °C 1018.5 hPa NW 10.3 km/h 13 km/h 17 % 0 mm
18:40 33 °C 4.7 °C 1018.5 hPa NW 6.4 km/h 7.4 km/h 17 % 0 mm
18:45 33 °C 4.7 °C 1018.5 hPa NW 5.1 km/h 7.4 km/h 17 % 0 mm
18:50 33 °C 5.5 °C 1018.5 hPa North 6.6 km/h 11.1 km/h 18 % 0 mm
18:55 32.9 °C 5.5 °C 1018.5 hPa NW 6.8 km/h 8 km/h 18 % 0 mm
19:00 32.8 °C 5.4 °C 1018.5 hPa NW 4.2 km/h 5.6 km/h 18 % 0 mm
19:05 32.7 °C 4.5 °C 1018.5 hPa NW 7.2 km/h 11.1 km/h 17 % 0 mm
19:10 32.6 °C 5.2 °C 1018.5 hPa NW 2.3 km/h 5.6 km/h 18 % 0 mm
19:15 32.6 °C 5.2 °C 1018.5 hPa NW 2.7 km/h 4.8 km/h 18 % 0 mm
19:20 32.4 °C 5.1 °C 1018.5 hPa NW 4.8 km/h 9.7 km/h 18 % 0 mm
19:25 32.2 °C 4.9 °C 1018.5 hPa NW 3.9 km/h 5.6 km/h 18 % 0 mm
19:30 32.1 °C 5.6 °C 1018.5 hPa NW 1.9 km/h 3.7 km/h 19 % 0 mm
19:35 31.9 °C 5.4 °C 1018.8 hPa North 3.7 km/h 6.4 km/h 19 % 0 mm
19:40 31.6 °C 5.2 °C 1018.8 hPa NW 1.8 km/h 3.7 km/h 19 % 0 mm
19:45 31.3 °C 4.9 °C 1018.8 hPa NW 3.9 km/h 5.6 km/h 19 % 0 mm
19:50 30.9 °C 5.3 °C 1018.8 hPa NW 1.4 km/h 3.7 km/h 20 % 0 mm
19:55 30.6 °C 5.1 °C 1018.8 hPa NW 0.2 km/h 1.6 km/h 20 % 0 mm
20:00 30.3 °C 5.5 °C 1018.8 hPa NW 2.7 km/h 5.6 km/h 21 % 0 mm
20:05 29.8 °C 5.8 °C 1018.8 hPa Calm     22 % 0 mm
20:10 29.3 °C 6 °C 1018.8 hPa Calm   1.9 km/h 23 % 0 mm
21:24 24.6 °C 6.3 °C 1019.5 hPa Calm     31 % 0 mm
21:29 24.4 °C 6.6 °C 1019.9 hPa NW 1.1 km/h 8 km/h 32 % 0 mm
21:34 24.2 °C 6 °C 1019.9 hPa South 8.5 km/h 13 km/h 31 % 0 mm
21:39 24.8 °C 6.1 °C 1019.9 hPa South 9 km/h 13 km/h 30 % 0 mm
21:44 25.4 °C 6.1 °C 1020.2 hPa South 1.6 km/h 3.7 km/h 29 % 0 mm
21:49 25.4 °C 6.1 °C 1020.2 hPa South 5 km/h 7.4 km/h 29 % 0 mm
21:54 25.4 °C 6.1 °C 1019.9 hPa South 8.2 km/h 11.1 km/h 29 % 0 mm
21:59 25.4 °C 6.6 °C 1019.9 hPa South 3.4 km/h 7.4 km/h 30 % 0 mm
22:04 25.3 °C 6.4 °C 1020.2 hPa South 5.8 km/h 5.8 km/h 30 % 0 mm
22:09 25.1 °C 6.3 °C 1019.9 hPa South 0.8 km/h 1.9 km/h 30 % 0 mm
22:14 25 °C 6.7 °C 1019.9 hPa South 0.2 km/h 1.9 km/h 31 % 0 mm
22:19 24.8 °C 6.6 °C 1019.9 hPa Calm   1.9 km/h 31 % 0 mm
22:24 24.4 °C 6.7 °C 1019.9 hPa Calm     32 % 0 mm
22:29 24.1 °C 6.8 °C 1019.9 hPa South 1 km/h 3.7 km/h 33 % 0 mm
22:34 23.7 °C 6.9 °C 1019.9 hPa Calm     34 % 0 mm
22:39 22.9 °C 7 °C 1019.9 hPa Calm     36 % 0 mm
22:44 22.4 °C 6.6 °C 1019.9 hPa Calm     36 % 0 mm
22:49 22.1 °C 7.1 °C 1019.9 hPa Calm     38 % 0 mm
22:54 21.7 °C 7.1 °C 1019.9 hPa Calm     39 % 0 mm
22:59 21.2 °C 7.4 °C 1019.9 hPa South 0.8 km/h 1.9 km/h 41 % 0 mm
23:04 21.1 °C 7.3 °C 1019.9 hPa Calm   1.9 km/h 41 % 0 mm
23:09 21 °C 7.2 °C 1019.9 hPa Calm   1.9 km/h 41 % 0 mm
23:14 20.9 °C 7.2 °C 1019.9 hPa Calm     41 % 0 mm
23:19 20.7 °C 7.3 °C 1019.9 hPa Calm     42 % 0 mm
23:24 20.5 °C 7.5 °C 1019.9 hPa Calm   1.9 km/h 43 % 0 mm
23:29 20.6 °C 7.2 °C 1019.9 hPa Calm     42 % 0 mm
23:34 20.5 °C 7.5 °C 1019.9 hPa Calm     43 % 0 mm
23:39 20.4 °C 7.4 °C 1019.9 hPa Calm     43 % 0 mm
23:44 20.3 °C 7.6 °C 1019.9 hPa Calm     44 % 0 mm
23:49 20.2 °C 7.6 °C 1019.9 hPa Calm     44 % 0 mm
23:54 20.1 °C 7.4 °C 1019.9 hPa Calm     44 % 0 mm
23:59 20 °C 7.7 °C 1019.9 hPa South 5.5 km/h 6.4 km/h 45 % 0 mm
Ararat Weather
Compliments of Weather Underground - 2.25 mb
Click here to send mail.


ABOUT

Live weather data from Ararat, Victoria, Australia, 3377
Data uploaded from Cumulus every 5 minutes to Weather Underground.
This site then downloads the raw data for formatting and display.
Metric and imperial data can be displayed. Graphs and historical data available.
Includes Sun and Moon times and rain image live from BOM.

Check out Ararat Weather on Facebook, Twitter and Google +

Help support ongoing costs by checking out the ads





Follow @AraratWeather